Regional Weather Roundup
Issued by NWS

Home | Current Version | Previous Version | Text Only | Print | Product List | Glossary Off
Versions: 1 2 3 4 5 6 7 8 9 10 11 12 13 14 15 16 17 18 19 20 21 22 23 24 25 26 27 28 29 30 31 32 33 34 35 36 37 38 39 40 41 42 43 44 45 46 47 48 49 50

000
ASUS43 KLSX 271107
RWRMO

WEATHER SUMMARY FOR MISSOURI
NATIONAL WEATHER SERVICE SPRINGFIELD MO
600 AM CDT THU AUG 27 2015

NOTE: "FAIR" INDICATES FEW OR NO CLOUDS BELOW 12,000 FEET WITH NO
       SIGNIFICANT WEATHER AND/OR OBSTRUCTIONS TO VISIBILITY.
       CURRENT SKY AND/OR WEATHER CONDITIONS ARE NOT AVAILABLE FOR
       CHILLICOTHE AND FARMINGTON.

MOZ001>031-035>038-043-044-053-054-271200-
...NORTHERN AND WESTERN MISSOURI...

CITY           SKY/WX    TMP DP  RH WIND       PRES   REMARKS
KANSAS CTY INT PTCLDY    65  54  67 SE9       30.08F
KANSAS C DTWN  PTCLDY    67  55  65 SE5       30.08F
LEE`S SUMMIT   CLEAR     63  54  72 SE6       30.10F
ST JOSEPH      PTCLDY    65  56  72 SE3       30.08S
CHILLICOTHE      N/A     58  55  90 CALM      30.13R
KIRKSVILLE     CLEAR     55  52  89 SE7       30.15F

$$
MOZ066>068-077>081-088>096-101>105-271200-
...SOUTHWEST MISSOURI...

CITY           SKY/WX    TMP DP  RH WIND       PRES   REMARKS
SPRINGFIELD    CLEAR     61  54  77 SE9       30.13R
JOPLIN         MOCLDY    66  61  84 VRB6      30.10S

$$
MOZ032>034-039>042-045>050-055>058-069>072-271200-
...CENTRAL MISSOURI...

CITY           SKY/WX    TMP DP  RH WIND       PRES   REMARKS
COLUMBIA       CLEAR     58  56  93 E7        30.16R
JEFFERSON CITY CLEAR     55  55 100 CALM      30.16R
ROLLA          CLEAR     56  54  93 E8        30.15R
SEDALIA        CLEAR     57  53  86 SE6       30.13S
WHITEMAN AFB   CLEAR     59  54  83 SE2       30.10F
WARRENSBURG    CLEAR     57  52  82 CALM      30.10F
OSAGE BEACH    CLEAR     55  52  88 CALM      30.15R

$$
MOZ051-052-059>065-271200-
...EAST CENTRAL MISSOURI...

CITY           SKY/WX    TMP DP  RH WIND       PRES   REMARKS
ST LOUIS INTL  CLEAR     61  54  77 E3        30.17R
SPIRIT OF STL  CLEAR     54  54 100 CALM      30.17R
ST CHARLES     CLEAR     57  55  93 CALM      30.18R

$$
MOZ072>076-082>087-097>100-106>115-271200-
...SOUTH CENTRAL AND SOUTHEAST MISSOURI...

CITY           SKY/WX    TMP DP  RH WIND       PRES   REMARKS
CAPE GIRARDEAU FOG       54  54 100 W3        30.14R VSB 1/4
FARMINGTON     CLEAR     54  52  94 CALM      30.18R
POPLAR BLUFF   CLEAR     57  55  93 CALM      30.12S
WEST PLAINS    CLEAR     54  51  90 CALM      30.17R

$$


USA.gov is the U.S. government's official web portal to all federal, state and local government web resources and services.